| time (UTC) | temp F | wind direction | speed MPH | gust MPH | rain 1hr in | rain 24hr in | rain mn in | humidity % | barometer mb |
| 20260505073803 | 51 | 112 | 2.0 | 5.0 | 0.00 | 0.00 | 0.00 | 61 | 1009.2 |
| 20260505073703 | 51 | 111 | 2.0 | 5.0 | 0.00 | 0.00 | 0.00 | 61 | 1009.2 |
| 20260505073604 | 51 | 112 | 2.0 | 5.0 | 0.00 | 0.00 | 0.00 | 61 | 1009.2 |
| 20260505073503 | 51 | 113 | 2.0 | 5.0 | 0.00 | 0.00 | 0.00 | 61 | 1009.2 |
| 20260505073404 | 51 | 117 | 3.0 | 4.0 | 0.00 | 0.00 | 0.00 | 61 | 1009.2 |
| 20260505073303 | 51 | 127 | 3.0 | 4.0 | 0.00 | 0.00 | 0.00 | 61 | 1009.2 |
| 20260505073203 | 51 | 139 | 4.0 | 5.0 | 0.00 | 0.00 | 0.00 | 61 | 1009.2 |
| 20260505073104 | 51 | 147 | 4.0 | 5.0 | 0.00 | 0.00 | 0.00 | 61 | 1009.2 |
| 20260505073003 | 52 | 150 | 4.0 | 5.0 | 0.00 | 0.00 | 0.00 | 61 | 1009.2 |
| 20260505072904 | 52 | 147 | 5.0 | 5.0 | 0.00 | 0.00 | 0.00 | 61 | 1009.2 |
| 20260505072804 | 52 | 144 | 5.0 | 6.0 | 0.00 | 0.00 | 0.00 | 60 | 1009.2 |
| 20260505072703 | 52 | 141 | 5.0 | 7.0 | 0.00 | 0.00 | 0.00 | 60 | 1009.2 |
| 20260505072604 | 52 | 138 | 6.0 | 7.0 | 0.00 | 0.00 | 0.00 | 60 | 1009.3 |
| 20260505072503 | 52 | 135 | 6.0 | 7.0 | 0.00 | 0.00 | 0.00 | 59 | 1009.3 |
| 20260505072403 | 52 | 133 | 6.0 | 7.0 | 0.00 | 0.00 | 0.00 | 58 | 1009.4 |
| 20260505072305 | 52 | 132 | 6.0 | 7.0 | 0.00 | 0.00 | 0.00 | 58 | 1009.4 |
| 20260505072204 | 52 | 130 | 6.0 | 8.0 | 0.00 | 0.00 | 0.00 | 58 | 1009.4 |
| 20260505072003 | 52 | 128 | 5.0 | 8.0 | 0.00 | 0.00 | 0.00 | 58 | 1009.4 |
| 20260505071903 | 52 | 127 | 5.0 | 8.0 | 0.00 | 0.00 | 0.00 | 58 | 1009.5 |
| 20260505071803 | 52 | 127 | 5.0 | 8.0 | 0.00 | 0.00 | 0.00 | 58 | 1009.5 |
| 20260505071703 | 52 | 127 | 5.0 | 8.0 | 0.00 | 0.00 | 0.00 | 58 | 1009.5 |
| 20260505071504 | 52 | 130 | 4.0 | 8.0 | 0.00 | 0.00 | 0.00 | 58 | 1009.5 |
| 20260505071304 | 52 | 133 | 3.0 | 8.0 | 0.00 | 0.00 | 0.00 | 58 | 1009.4 |
| 20260505071103 | 52 | 136 | 3.0 | 7.0 | 0.00 | 0.00 | 0.00 | 58 | 1009.5 |
| 20260505071004 | 52 | 139 | 3.0 | 7.0 | 0.00 | 0.00 | 0.00 | 58 | 1009.4 |
| 20260505070903 | 52 | 143 | 2.0 | 7.0 | 0.00 | 0.00 | 0.00 | 58 | 1009.5 |
| 20260505070804 | 52 | 146 | 2.0 | 5.0 | 0.00 | 0.00 | 0.00 | 58 | 1009.5 |
| 20260505070703 | 52 | 149 | 2.0 | 5.0 | 0.00 | 0.00 | 0.00 | 58 | 1009.5 |
| 20260505070603 | 52 | 152 | 2.0 | 5.0 | 0.00 | 0.00 | 0.00 | 59 | 1009.4 |
| 20260505070503 | 52 | 154 | 2.0 | 5.0 | 0.00 | 0.00 | 0.00 | 58 | 1009.5 |
| 20260505070404 | 52 | 157 | 2.0 | 5.0 | 0.00 | 0.00 | 0.00 | 58 | 1009.4 |
| 20260505070304 | 52 | 159 | 2.0 | 5.0 | 0.00 | 0.00 | 0.00 | 58 | 1009.4 |
| 20260505070203 | 52 | 160 | 2.0 | 5.0 | 0.00 | 0.00 | 0.00 | 58 | 1009.4 |
| 20260505070104 | 52 | 169 | 2.0 | 5.0 | 0.00 | 0.00 | 0.00 | 58 | 1009.4 |
| 20260505070004 | 52 | 189 | 3.0 | 5.0 | 0.00 | 0.00 | 0.00 | 58 | 1009.4 |
| 20260505065903 | 52 | 298 | 3.0 | 5.0 | 0.00 | 0.00 | 0.00 | 58 | 1009.5 |
| 20260505065804 | 52 | 313 | 3.0 | 6.0 | 0.00 | 0.00 | 0.00 | 57 | 1009.4 |
| 20260505065703 | 52 | 316 | 3.0 | 6.0 | 0.00 | 0.00 | 0.00 | 57 | 1009.4 |
| 20260505065604 | 52 | 319 | 3.0 | 6.0 | 0.00 | 0.00 | 0.00 | 57 | 1009.5 |
| 20260505065503 | 52 | 319 | 3.0 | 6.0 | 0.00 | 0.00 | 0.00 | 56 | 1009.5 |
| 20260505065404 | 52 | 319 | 3.0 | 6.0 | 0.00 | 0.00 | 0.00 | 56 | 1009.5 |
| 20260505065304 | 52 | 319 | 3.0 | 6.0 | 0.00 | 0.00 | 0.00 | 56 | 1009.5 |
| 20260505065204 | 52 | 318 | 2.0 | 6.0 | 0.00 | 0.00 | 0.00 | 56 | 1009.4 |
| 20260505065103 | 52 | 318 | 2.0 | 6.0 | 0.00 | 0.00 | 0.00 | 57 | 1009.4 |
| 20260505064904 | 52 | 317 | 1.0 | 6.0 | 0.00 | 0.00 | 0.00 | 57 | 1009.4 |
| 20260505064803 | 52 | 318 | 1.0 | 6.0 | 0.00 | 0.00 | 0.00 | 57 | 1009.5 |
| 20260505064703 | 52 | 317 | 1.0 | 6.0 | 0.00 | 0.00 | 0.00 | 57 | 1009.5 |
| 20260505064604 | 52 | 316 | 0.0 | 6.0 | 0.00 | 0.00 | 0.00 | 58 | 1009.5 |
| 20260505064403 | 52 | 314 | 0.0 | 6.0 | 0.00 | 0.00 | 0.00 | 58 | 1009.5 |
| 20260505064303 | 52 | 313 | 0.0 | 6.0 | 0.00 | 0.00 | 0.00 | 58 | 1009.5 |
| 20260505064203 | 52 | 313 | 0.0 | 5.0 | 0.00 | 0.00 | 0.00 | 58 | 1009.4 |
| 20260505064003 | 52 | 315 | 1.0 | 4.0 | 0.00 | 0.00 | 0.00 | 58 | 1009.5 |
| 20260505063903 | 52 | 318 | 1.0 | 4.0 | 0.00 | 0.00 | 0.00 | 58 | 1009.5 |
| 20260505063804 | 52 | 308 | 1.0 | 1.0 | 0.00 | 0.00 | 0.00 | 58 | 1009.5 |
| 20260505063704 | 52 | 300 | 1.0 | 1.0 | 0.00 | 0.00 | 0.00 | 58 | 1009.4 |
| 20260505063603 | 52 | 314 | 2.0 | 4.0 | 0.00 | 0.00 | 0.00 | 58 | 1009.4 |
| 20260505063504 | 52 | 318 | 2.0 | 4.0 | 0.00 | 0.00 | 0.00 | 58 | 1009.5 |
| 20260505063403 | 52 | 316 | 2.0 | 5.0 | 0.00 | 0.00 | 0.00 | 58 | 1009.4 |
| 20260505063303 | 52 | 318 | 2.0 | 5.0 | 0.00 | 0.00 | 0.00 | 58 | 1009.4 |
| 20260505063204 | 53 | 320 | 3.0 | 5.0 | 0.00 | 0.00 | 0.00 | 58 | 1009.4 |
| 20260505063103 | 53 | 328 | 3.0 | 7.0 | 0.00 | 0.00 | 0.00 | 58 | 1009.4 |
| 20260505063004 | 53 | 332 | 3.0 | 7.0 | 0.00 | 0.00 | 0.00 | 58 | 1009.4 |
| 20260505062904 | 53 | 337 | 3.0 | 7.0 | 0.00 | 0.00 | 0.00 | 58 | 1009.4 |
| 20260505062803 | 53 | 339 | 3.0 | 9.0 | 0.00 | 0.00 | 0.00 | 58 | 1009.4 |
| 20260505062704 | 53 | 336 | 3.0 | 9.0 | 0.00 | 0.00 | 0.00 | 58 | 1009.3 |
| 20260505062603 | 53 | 335 | 3.0 | 9.0 | 0.00 | 0.00 | 0.00 | 57 | 1009.4 |
| 20260505062504 | 53 | 335 | 2.0 | 9.0 | 0.00 | 0.00 | 0.00 | 58 | 1009.4 |
| 20260505062403 | 53 | 335 | 2.0 | 9.0 | 0.00 | 0.00 | 0.00 | 57 | 1009.4 |
| 20260505062304 | 53 | 335 | 2.0 | 9.0 | 0.00 | 0.00 | 0.00 | 57 | 1009.4 |
| 20260505062204 | 53 | 334 | 2.0 | 9.0 | 0.00 | 0.00 | 0.00 | 57 | 1009.4 |
| 20260505062103 | 53 | 327 | 2.0 | 9.0 | 0.00 | 0.00 | 0.00 | 57 | 1009.3 |
| 20260505062003 | 53 | 324 | 2.0 | 9.0 | 0.00 | 0.00 | 0.00 | 57 | 1009.3 |
| 20260505061903 | 53 | 315 | 2.0 | 9.0 | 0.00 | 0.00 | 0.00 | 58 | 1009.3 |
| 20260505061803 | 53 | 300 | 2.0 | 8.0 | 0.00 | 0.00 | 0.00 | 58 | 1009.3 |
| 20260505061704 | 52 | 294 | 3.0 | 6.0 | 0.00 | 0.00 | 0.00 | 58 | 1009.3 |
| 20260505061603 | 52 | 295 | 3.0 | 6.0 | 0.00 | 0.00 | 0.00 | 58 | 1009.3 |
| 20260505061503 | 52 | 297 | 3.0 | 6.0 | 0.00 | 0.00 | 0.00 | 58 | 1009.3 |
| 20260505061404 | 53 | 298 | 3.0 | 6.0 | 0.00 | 0.00 | 0.00 | 58 | 1009.3 |
| 20260505061303 | 53 | 300 | 3.0 | 7.0 | 0.00 | 0.00 | 0.00 | 58 | 1009.3 |
| 20260505061204 | 53 | 301 | 3.0 | 7.0 | 0.00 | 0.00 | 0.00 | 58 | 1009.3 |
| 20260505061104 | 53 | 304 | 3.0 | 7.0 | 0.00 | 0.00 | 0.00 | 58 | 1009.3 |
| 20260505061003 | 53 | 303 | 3.0 | 7.0 | 0.00 | 0.00 | 0.00 | 58 | 1009.3 |
| 20260505060904 | 53 | 304 | 2.0 | 7.0 | 0.00 | 0.00 | 0.00 | 58 | 1009.3 |
| 20260505060804 | 53 | 305 | 2.0 | 7.0 | 0.00 | 0.00 | 0.00 | 58 | 1009.3 |
| 20260505060703 | 53 | 305 | 2.0 | 7.0 | 0.00 | 0.00 | 0.00 | 58 | 1009.3 |
| 20260505060603 | 53 | 305 | 2.0 | 7.0 | 0.00 | 0.00 | 0.00 | 58 | 1009.3 |
| 20260505060504 | 53 | 305 | 2.0 | 7.0 | 0.00 | 0.00 | 0.00 | 58 | 1009.3 |
| 20260505060404 | 52 | 306 | 2.0 | 7.0 | 0.00 | 0.00 | 0.00 | 58 | 1009.3 |
| 20260505060304 | 52 | 306 | 2.0 | 6.0 | 0.00 | 0.00 | 0.00 | 58 | 1009.3 |
| 20260505060204 | 52 | 308 | 2.0 | 6.0 | 0.00 | 0.00 | 0.00 | 58 | 1009.3 |
| 20260505060104 | 52 | 307 | 2.0 | 6.0 | 0.00 | 0.00 | 0.00 | 59 | 1009.3 |
| 20260505060005 | 52 | 308 | 2.0 | 6.0 | 0.00 | 0.00 | 0.00 | 58 | 1009.3 |
| 20260505055903 | 52 | 307 | 2.0 | 6.0 | 0.00 | 0.00 | 0.00 | 58 | 1009.3 |
| 20260505055803 | 52 | 300 | 2.0 | 6.0 | 0.00 | 0.00 | 0.00 | 58 | 1009.3 |
| 20260505055704 | 52 | 299 | 1.0 | 6.0 | 0.00 | 0.00 | 0.00 | 58 | 1009.3 |
| 20260505055603 | 52 | 294 | 1.0 | 6.0 | 0.00 | 0.00 | 0.00 | 59 | 1009.3 |
| 20260505055504 | 52 | 291 | 1.0 | 6.0 | 0.00 | 0.00 | 0.00 | 59 | 1009.3 |
| 20260505055403 | 52 | 287 | 1.0 | 6.0 | 0.00 | 0.00 | 0.00 | 59 | 1009.3 |
| 20260505055304 | 52 | 285 | 1.0 | 6.0 | 0.00 | 0.00 | 0.00 | 59 | 1009.3 |
| 20260505055203 | 52 | 274 | 1.0 | 5.0 | 0.00 | 0.00 | 0.00 | 60 | 1009.3 |
| 20260505055103 | 52 | 272 | 0.0 | 5.0 | 0.00 | 0.00 | 0.00 | 60 | 1009.3 |
| 20260505055004 | 52 | 265 | 0.0 | 5.0 | 0.00 | 0.00 | 0.00 | 60 | 1009.3 |
| 20260505054804 | 52 | 269 | 0.0 | 5.0 | 0.00 | 0.00 | 0.00 | 60 | 1009.3 |
| 20260505054703 | 52 | 269 | 0.0 | 5.0 | 0.00 | 0.00 | 0.00 | 61 | 1009.3 |
| 20260505054604 | 52 | 0 | 0.0 | 4.0 | 0.00 | 0.00 | 0.00 | 61 | 1009.3 |
| 20260505054503 | 51 | 0 | 0.0 | 2.0 | 0.00 | 0.00 | 0.00 | 61 | 1009.3 |
| 20260505054403 | 51 | 0 | 0.0 | 2.0 | 0.00 | 0.00 | 0.00 | 61 | 1009.3 |
| 20260505054304 | 51 | 0 | 0.0 | 2.0 | 0.00 | 0.00 | 0.00 | 61 | 1009.3 |
| 20260505054203 | 51 | 302 | 0.0 | 2.0 | 0.00 | 0.00 | 0.00 | 61 | 1009.4 |
| 20260505054104 | 51 | 157 | 0.0 | 1.0 | 0.00 | 0.00 | 0.00 | 61 | 1009.4 |
| 20260505053903 | 51 | 0 | 1.0 | 0.0 | 0.00 | 0.00 | 0.00 | 61 | 1009.3 |
| 20260505053804 | 51 | 0 | 1.0 | 0.0 | 0.00 | 0.00 | 0.00 | 61 | 1009.4 |
| 20260505053703 | 51 | 0 | 1.0 | 0.0 | 0.00 | 0.00 | 0.00 | 60 | 1009.4 |
| 20260505053604 | 52 | 0 | 2.0 | 0.0 | 0.00 | 0.00 | 0.00 | 60 | 1009.4 |
| 20260505053503 | 52 | 20 | 2.0 | 1.0 | 0.00 | 0.00 | 0.00 | 60 | 1009.4 |
| 20260505053405 | 52 | 25 | 2.0 | 2.0 | 0.00 | 0.00 | 0.00 | 60 | 1009.4 |
| 20260505053303 | 52 | 39 | 3.0 | 5.0 | 0.00 | 0.00 | 0.00 | 60 | 1009.4 |
| 20260505053203 | 52 | 42 | 3.0 | 5.0 | 0.00 | 0.00 | 0.00 | 60 | 1009.4 |
| 20260505053104 | 52 | 40 | 4.0 | 5.0 | 0.00 | 0.00 | 0.00 | 60 | 1009.4 |
| 20260505053003 | 52 | 40 | 4.0 | 7.0 | 0.00 | 0.00 | 0.00 | 60 | 1009.4 |
| 20260505052904 | 52 | 39 | 4.0 | 7.0 | 0.00 | 0.00 | 0.00 | 60 | 1009.4 |
| 20260505052803 | 52 | 38 | 4.0 | 8.0 | 0.00 | 0.00 | 0.00 | 60 | 1009.4 |
| 20260505052704 | 52 | 40 | 4.0 | 8.0 | 0.00 | 0.00 | 0.00 | 60 | 1009.5 |
| 20260505052603 | 52 | 41 | 4.0 | 8.0 | 0.00 | 0.00 | 0.00 | 60 | 1009.4 |
| 20260505052503 | 52 | 43 | 4.0 | 8.0 | 0.00 | 0.00 | 0.00 | 60 | 1009.4 |
| 20260505052404 | 52 | 46 | 4.0 | 8.0 | 0.00 | 0.00 | 0.00 | 61 | 1009.4 |
| 20260505052304 | 52 | 48 | 3.0 | 8.0 | 0.00 | 0.00 | 0.00 | 61 | 1009.4 |
| 20260505052203 | 52 | 49 | 3.0 | 8.0 | 0.00 | 0.00 | 0.00 | 61 | 1009.4 |
| 20260505052104 | 52 | 50 | 2.0 | 8.0 | 0.00 | 0.00 | 0.00 | 61 | 1009.4 |
| 20260505052003 | 52 | 51 | 2.0 | 8.0 | 0.00 | 0.00 | 0.00 | 61 | 1009.4 |
| 20260505051904 | 52 | 53 | 2.0 | 8.0 | 0.00 | 0.00 | 0.00 | 60 | 1009.3 |
| 20260505051804 | 52 | 56 | 2.0 | 7.0 | 0.00 | 0.00 | 0.00 | 61 | 1009.3 |
| 20260505051703 | 52 | 57 | 2.0 | 7.0 | 0.00 | 0.00 | 0.00 | 60 | 1009.3 |
| 20260505051604 | 52 | 58 | 2.0 | 6.0 | 0.00 | 0.00 | 0.00 | 59 | 1009.3 |
| 20260505051503 | 52 | 58 | 3.0 | 6.0 | 0.00 | 0.00 | 0.00 | 59 | 1009.3 |
| 20260505051404 | 52 | 55 | 3.0 | 6.0 | 0.00 | 0.00 | 0.00 | 59 | 1009.2 |
| 20260505051303 | 53 | 21 | 4.0 | 6.0 | 0.00 | 0.00 | 0.00 | 59 | 1009.2 |
| 20260505051104 | 53 | 261 | 5.0 | 6.0 | 0.00 | 0.00 | 0.00 | 58 | 1009.1 |
| 20260505051003 | 53 | 255 | 6.0 | 9.0 | 0.00 | 0.00 | 0.00 | 58 | 1009.2 |
| 20260505050904 | 53 | 253 | 6.0 | 9.0 | 0.00 | 0.00 | 0.00 | 58 | 1009.1 |
| 20260505050803 | 53 | 253 | 7.0 | 9.0 | 0.00 | 0.00 | 0.00 | 58 | 1009.1 |
| 20260505050704 | 53 | 255 | 8.0 | 10.0 | 0.00 | 0.00 | 0.00 | 58 | 1009.2 |
| 20260505050603 | 53 | 255 | 8.0 | 13.0 | 0.00 | 0.00 | 0.00 | 58 | 1009.1 |
| 20260505050404 | 53 | 257 | 9.0 | 13.0 | 0.00 | 0.00 | 0.00 | 58 | 1009.1 |
| 20260505050303 | 53 | 257 | 9.0 | 13.0 | 0.00 | 0.00 | 0.00 | 58 | 1009.0 |
| 20260505050204 | 53 | 257 | 9.0 | 13.0 | 0.00 | 0.00 | 0.00 | 58 | 1009.0 |
| 20260505050104 | 53 | 258 | 9.0 | 13.0 | 0.00 | 0.00 | 0.00 | 58 | 1009.0 |
| 20260505041703 | 54 | 254 | 15.0 | 23.0 | 0.00 | 0.00 | 0.00 | 55 | 1008.8 |
| 20260505041604 | 54 | 253 | 14.0 | 23.0 | 0.00 | 0.00 | 0.00 | 55 | 1008.8 |
| 20260505041503 | 54 | 253 | 14.0 | 23.0 | 0.00 | 0.00 | 0.00 | 55 | 1008.7 |
| 20260505041404 | 54 | 254 | 14.0 | 23.0 | 0.00 | 0.00 | 0.00 | 55 | 1008.7 |
| 20260505041304 | 54 | 254 | 14.0 | 23.0 | 0.00 | 0.00 | 0.00 | 55 | 1008.6 |
| 20260505041203 | 54 | 254 | 14.0 | 23.0 | 0.00 | 0.00 | 0.00 | 55 | 1008.7 |
| 20260505041104 | 54 | 253 | 14.0 | 22.0 | 0.00 | 0.00 | 0.00 | 55 | 1008.6 |
| 20260505041004 | 54 | 253 | 14.0 | 22.0 | 0.00 | 0.00 | 0.00 | 55 | 1008.6 |
| 20260505040903 | 54 | 252 | 14.0 | 22.0 | 0.00 | 0.00 | 0.00 | 55 | 1008.6 |
| 20260505040804 | 54 | 252 | 14.0 | 22.0 | 0.00 | 0.00 | 0.00 | 55 | 1008.6 |
| 20260505040703 | 54 | 252 | 14.0 | 22.0 | 0.00 | 0.00 | 0.00 | 55 | 1008.5 |
| 20260505040604 | 54 | 252 | 14.0 | 19.0 | 0.00 | 0.00 | 0.00 | 55 | 1008.5 |
| 20260505040503 | 54 | 252 | 14.0 | 19.0 | 0.00 | 0.00 | 0.00 | 55 | 1008.8 |
| 20260505040404 | 54 | 252 | 14.0 | 19.0 | 0.00 | 0.00 | 0.00 | 55 | 1008.9 |
| 20260505040204 | 54 | 251 | 14.0 | 19.0 | 0.00 | 0.00 | 0.00 | 55 | 1008.9 |
| 20260505040104 | 55 | 251 | 14.0 | 19.0 | 0.00 | 0.00 | 0.00 | 55 | 1008.9 |
| 20260505040005 | 55 | 251 | 14.0 | 19.0 | 0.00 | 0.00 | 0.00 | 54 | 1008.9 |
| 20260505035904 | 54 | 251 | 13.0 | 19.0 | 0.00 | 0.00 | 0.00 | 54 | 1008.8 |
| 20260505035804 | 54 | 250 | 13.0 | 19.0 | 0.00 | 0.00 | 0.00 | 54 | 1008.8 |
| 20260505035704 | 54 | 250 | 13.0 | 19.0 | 0.00 | 0.00 | 0.00 | 54 | 1008.9 |
| 20260505035603 | 55 | 250 | 13.0 | 19.0 | 0.00 | 0.00 | 0.00 | 54 | 1008.9 |
| 20260505035504 | 55 | 251 | 13.0 | 19.0 | 0.00 | 0.00 | 0.00 | 54 | 1008.9 |
| 20260505035403 | 55 | 251 | 13.0 | 19.0 | 0.00 | 0.00 | 0.00 | 54 | 1008.8 |
| 20260505035304 | 55 | 251 | 13.0 | 19.0 | 0.00 | 0.00 | 0.00 | 54 | 1008.8 |
| 20260505035204 | 55 | 250 | 13.0 | 19.0 | 0.00 | 0.00 | 0.00 | 54 | 1008.8 |
| 20260505035103 | 55 | 249 | 13.0 | 19.0 | 0.00 | 0.00 | 0.00 | 54 | 1008.9 |
| 20260505035004 | 55 | 248 | 13.0 | 19.0 | 0.00 | 0.00 | 0.00 | 54 | 1008.8 |
| 20260505034903 | 55 | 247 | 13.0 | 19.0 | 0.00 | 0.00 | 0.00 | 54 | 1008.8 |
| 20260505034803 | 55 | 246 | 13.0 | 19.0 | 0.00 | 0.00 | 0.00 | 54 | 1008.8 |
| 20260505034604 | 55 | 245 | 13.0 | 19.0 | 0.00 | 0.00 | 0.00 | 53 | 1008.8 |
| 20260505034503 | 55 | 243 | 13.0 | 18.0 | 0.00 | 0.00 | 0.00 | 53 | 1008.7 |
| 20260505034404 | 55 | 242 | 13.0 | 18.0 | 0.00 | 0.00 | 0.00 | 53 | 1008.7 |
| 20260505034203 | 55 | 241 | 14.0 | 18.0 | 0.00 | 0.00 | 0.00 | 53 | 1008.7 |
| 20260505034104 | 55 | 242 | 14.0 | 16.0 | 0.00 | 0.00 | 0.00 | 53 | 1008.7 |
| 20260505034005 | 55 | 240 | 14.0 | 18.0 | 0.00 | 0.00 | 0.00 | 53 | 1008.7 |
| 20260505033903 | 55 | 241 | 14.0 | 21.0 | 0.00 | 0.00 | 0.00 | 53 | 1008.7 |
| 20260505033804 | 55 | 241 | 14.0 | 21.0 | 0.00 | 0.00 | 0.00 | 53 | 1008.7 |
| 20260505033703 | 55 | 241 | 14.0 | 21.0 | 0.00 | 0.00 | 0.00 | 52 | 1008.7 |
| 20260505033603 | 56 | 242 | 14.0 | 21.0 | 0.00 | 0.00 | 0.00 | 52 | 1008.7 |
| 20260505033504 | 56 | 242 | 13.0 | 21.0 | 0.00 | 0.00 | 0.00 | 52 | 1008.7 |
| 20260505033104 | 56 | 239 | 12.0 | 21.0 | 0.00 | 0.00 | 0.00 | 51 | 1008.6 |
| 20260505032904 | 56 | 239 | 12.0 | 21.0 | 0.00 | 0.00 | 0.00 | 51 | 1008.6 |
| 20260505032803 | 56 | 239 | 11.0 | 21.0 | 0.00 | 0.00 | 0.00 | 51 | 1008.6 |
| 20260505032703 | 56 | 239 | 11.0 | 21.0 | 0.00 | 0.00 | 0.00 | 51 | 1008.5 |
| 20260505032604 | 56 | 239 | 11.0 | 18.0 | 0.00 | 0.00 | 0.00 | 50 | 1008.7 |
| 20260505032504 | 56 | 239 | 10.0 | 18.0 | 0.00 | 0.00 | 0.00 | 50 | 1008.6 |
| 20260505032404 | 56 | 241 | 10.0 | 16.0 | 0.00 | 0.00 | 0.00 | 49 | 1008.6 |
| 20260505032304 | 56 | 242 | 10.0 | 16.0 | 0.00 | 0.00 | 0.00 | 49 | 1008.6 |
| 20260505032204 | 56 | 243 | 9.0 | 16.0 | 0.00 | 0.00 | 0.00 | 49 | 1008.7 |
| 20260505032104 | 56 | 244 | 9.0 | 16.0 | 0.00 | 0.00 | 0.00 | 48 | 1008.5 |
| 20260505032004 | 56 | 243 | 9.0 | 16.0 | 0.00 | 0.00 | 0.00 | 48 | 1008.5 |
| 20260505031904 | 57 | 244 | 9.0 | 15.0 | 0.00 | 0.00 | 0.00 | 47 | 1008.4 |
| 20260505031803 | 57 | 242 | 9.0 | 15.0 | 0.00 | 0.00 | 0.00 | 47 | 1008.4 |
| 20260505031704 | 57 | 241 | 8.0 | 15.0 | 0.00 | 0.00 | 0.00 | 47 | 1008.4 |
| 20260505031603 | 57 | 240 | 8.0 | 15.0 | 0.00 | 0.00 | 0.00 | 46 | 1008.4 |
| 20260505031504 | 57 | 238 | 8.0 | 15.0 | 0.00 | 0.00 | 0.00 | 46 | 1008.4 |
| 20260505031403 | 57 | 236 | 8.0 | 15.0 | 0.00 | 0.00 | 0.00 | 46 | 1008.4 |
| 20260505031303 | 57 | 233 | 8.0 | 15.0 | 0.00 | 0.00 | 0.00 | 46 | 1008.3 |
| 20260505031204 | 57 | 232 | 8.0 | 13.0 | 0.00 | 0.00 | 0.00 | 46 | 1008.3 |
| 20260505031103 | 57 | 230 | 8.0 | 12.0 | 0.00 | 0.00 | 0.00 | 46 | 1008.3 |
| 20260505031003 | 57 | 230 | 8.0 | 12.0 | 0.00 | 0.00 | 0.00 | 45 | 1008.3 |
| 20260505030904 | 57 | 229 | 8.0 | 12.0 | 0.00 | 0.00 | 0.00 | 45 | 1008.2 |
| 20260505030804 | 57 | 230 | 8.0 | 12.0 | 0.00 | 0.00 | 0.00 | 45 | 1008.2 |
| 20260505030703 | 57 | 230 | 9.0 | 12.0 | 0.00 | 0.00 | 0.00 | 45 | 1008.2 |
| 20260505030604 | 57 | 231 | 9.0 | 12.0 | 0.00 | 0.00 | 0.00 | 45 | 1008.2 |
| 20260505030503 | 57 | 232 | 9.0 | 12.0 | 0.00 | 0.00 | 0.00 | 45 | 1008.1 |
| 20260505030403 | 57 | 232 | 9.0 | 12.0 | 0.00 | 0.00 | 0.00 | 45 | 1008.1 |
| 20260505030304 | 57 | 232 | 9.0 | 12.0 | 0.00 | 0.00 | 0.00 | 45 | 1008.1 |
| 20260505030203 | 57 | 231 | 9.0 | 12.0 | 0.00 | 0.00 | 0.00 | 45 | 1008.1 |
| 20260505030104 | 57 | 231 | 9.0 | 12.0 | 0.00 | 0.00 | 0.00 | 45 | 1008.0 |
| 20260505030004 | 57 | 229 | 10.0 | 12.0 | 0.00 | 0.00 | 0.00 | 45 | 1008.0 |
| 20260505025903 | 57 | 228 | 10.0 | 12.0 | 0.00 | 0.00 | 0.00 | 45 | 1008.0 |
| 20260505025804 | 57 | 227 | 10.0 | 12.0 | 0.00 | 0.00 | 0.00 | 45 | 1008.0 |
| 20260505025703 | 57 | 225 | 10.0 | 12.0 | 0.00 | 0.00 | 0.00 | 45 | 1008.0 |
| 20260505025603 | 58 | 224 | 11.0 | 12.0 | 0.00 | 0.00 | 0.00 | 45 | 1008.0 |
| 20260505025504 | 58 | 223 | 11.0 | 16.0 | 0.00 | 0.00 | 0.00 | 45 | 1008.0 |
| 20260505025404 | 58 | 223 | 11.0 | 16.0 | 0.00 | 0.00 | 0.00 | 45 | 1008.0 |
| 20260505025304 | 58 | 223 | 11.0 | 16.0 | 0.00 | 0.00 | 0.00 | 45 | 1008.0 |
| 20260505025204 | 58 | 222 | 11.0 | 16.0 | 0.00 | 0.00 | 0.00 | 45 | 1008.0 |
| 20260505025104 | 58 | 222 | 12.0 | 16.0 | 0.00 | 0.00 | 0.00 | 45 | 1007.9 |
| 20260505025003 | 58 | 223 | 12.0 | 16.0 | 0.00 | 0.00 | 0.00 | 45 | 1007.9 |
| 20260505024904 | 58 | 223 | 12.0 | 16.0 | 0.00 | 0.00 | 0.00 | 45 | 1008.0 |
| 20260505024803 | 58 | 223 | 12.0 | 16.0 | 0.00 | 0.00 | 0.00 | 45 | 1008.0 |
| 20260505024703 | 58 | 223 | 12.0 | 16.0 | 0.00 | 0.00 | 0.00 | 45 | 1008.0 |
| 20260505024604 | 58 | 223 | 12.0 | 18.0 | 0.00 | 0.00 | 0.00 | 45 | 1008.0 |
| 20260505024503 | 58 | 224 | 11.0 | 18.0 | 0.00 | 0.00 | 0.00 | 45 | 1008.0 |
| 20260505024404 | 58 | 223 | 11.0 | 18.0 | 0.00 | 0.00 | 0.00 | 45 | 1008.0 |
| 20260505024304 | 58 | 222 | 11.0 | 18.0 | 0.00 | 0.00 | 0.00 | 44 | 1007.9 |
| 20260505024203 | 58 | 222 | 11.0 | 18.0 | 0.00 | 0.00 | 0.00 | 44 | 1007.9 |
| 20260505024104 | 58 | 221 | 11.0 | 18.0 | 0.00 | 0.00 | 0.00 | 44 | 1007.8 |
| 20260505024003 | 58 | 221 | 10.0 | 18.0 | 0.00 | 0.00 | 0.00 | 44 | 1007.7 |
| 20260505023903 | 58 | 221 | 10.0 | 18.0 | 0.00 | 0.00 | 0.00 | 44 | 1007.8 |
| 20260505023804 | 58 | 220 | 10.0 | 18.0 | 0.00 | 0.00 | 0.00 | 44 | 1007.7 |
| 20260505023704 | 58 | 221 | 10.0 | 18.0 | 0.00 | 0.00 | 0.00 | 44 | 1007.7 |
| 20260505023603 | 58 | 220 | 10.0 | 18.0 | 0.00 | 0.00 | 0.00 | 44 | 1007.7 |
| 20260505023504 | 58 | 220 | 10.0 | 18.0 | 0.00 | 0.00 | 0.00 | 43 | 1007.7 |
| 20260505023303 | 58 | 223 | 10.0 | 15.0 | 0.00 | 0.00 | 0.00 | 43 | 1007.7 |
| 20260505023204 | 59 | 224 | 10.0 | 15.0 | 0.00 | 0.00 | 0.00 | 43 | 1007.7 |
| 20260505023103 | 59 | 226 | 9.0 | 15.0 | 0.00 | 0.00 | 0.00 | 42 | 1007.7 |
| 20260505023004 | 59 | 226 | 9.0 | 15.0 | 0.00 | 0.00 | 0.00 | 42 | 1007.6 |
| 20260505022803 | 59 | 226 | 9.0 | 14.0 | 0.00 | 0.00 | 0.00 | 42 | 1007.7 |
| 20260505022703 | 59 | 227 | 9.0 | 14.0 | 0.00 | 0.00 | 0.00 | 41 | 1007.7 |
| 20260505022604 | 59 | 228 | 9.0 | 14.0 | 0.00 | 0.00 | 0.00 | 41 | 1007.6 |
| 20260505022503 | 59 | 228 | 9.0 | 14.0 | 0.00 | 0.00 | 0.00 | 41 | 1007.7 |
| 20260505022404 | 59 | 229 | 9.0 | 14.0 | 0.00 | 0.00 | 0.00 | 41 | 1007.7 |
| 20260505022304 | 59 | 230 | 9.0 | 14.0 | 0.00 | 0.00 | 0.00 | 41 | 1007.7 |
| 20260505022203 | 59 | 231 | 9.0 | 12.0 | 0.00 | 0.00 | 0.00 | 41 | 1007.5 |
| 20260505022104 | 59 | 232 | 9.0 | 12.0 | 0.00 | 0.00 | 0.00 | 41 | 1007.6 |
| 20260505022003 | 59 | 233 | 10.0 | 12.0 | 0.00 | 0.00 | 0.00 | 41 | 1007.5 |
| 20260505021903 | 59 | 234 | 10.0 | 12.0 | 0.00 | 0.00 | 0.00 | 40 | 1007.6 |
| 20260505021804 | 59 | 234 | 10.0 | 12.0 | 0.00 | 0.00 | 0.00 | 41 | 1007.6 |
| 20260505021703 | 59 | 234 | 10.0 | 12.0 | 0.00 | 0.00 | 0.00 | 41 | 1007.6 |
| 20260505021604 | 59 | 233 | 10.0 | 12.0 | 0.00 | 0.00 | 0.00 | 40 | 1007.5 |
| 20260505021504 | 59 | 231 | 10.0 | 15.0 | 0.00 | 0.00 | 0.00 | 40 | 1007.5 |
| 20260505021403 | 59 | 232 | 10.0 | 15.0 | 0.00 | 0.00 | 0.00 | 40 | 1007.4 |
| 20260505021304 | 59 | 231 | 10.0 | 15.0 | 0.00 | 0.00 | 0.00 | 40 | 1007.4 |
| 20260505021203 | 59 | 231 | 10.0 | 15.0 | 0.00 | 0.00 | 0.00 | 40 | 1007.4 |
| 20260505021103 | 59 | 231 | 10.0 | 15.0 | 0.00 | 0.00 | 0.00 | 40 | 1007.4 |
| 20260505021004 | 59 | 231 | 11.0 | 15.0 | 0.00 | 0.00 | 0.00 | 41 | 1007.4 |
| 20260505020903 | 59 | 231 | 11.0 | 16.0 | 0.00 | 0.00 | 0.00 | 41 | 1007.4 |
| 20260505020803 | 59 | 232 | 11.0 | 16.0 | 0.00 | 0.00 | 0.00 | 41 | 1007.3 |
| 20260505020704 | 59 | 233 | 11.0 | 16.0 | 0.00 | 0.00 | 0.00 | 41 | 1007.3 |
| 20260505020503 | 59 | 234 | 11.0 | 16.0 | 0.00 | 0.00 | 0.00 | 41 | 1007.3 |
| 20260505020404 | 59 | 233 | 10.0 | 16.0 | 0.00 | 0.00 | 0.00 | 41 | 1007.2 |
| 20260505020303 | 59 | 234 | 10.0 | 18.0 | 0.00 | 0.00 | 0.00 | 41 | 1007.2 |
| 20260505020203 | 59 | 234 | 10.0 | 18.0 | 0.00 | 0.00 | 0.00 | 41 | 1007.1 |
| 20260505020104 | 59 | 234 | 10.0 | 18.0 | 0.00 | 0.00 | 0.00 | 41 | 1007.0 |
| 20260505020003 | 59 | 234 | 10.0 | 18.0 | 0.00 | 0.00 | 0.00 | 41 | 1007.0 |
| 20260505015903 | 59 | 234 | 10.0 | 18.0 | 0.00 | 0.00 | 0.00 | 41 | 1007.4 |
| 20260505015804 | 59 | 234 | 10.0 | 18.0 | 0.00 | 0.00 | 0.00 | 41 | 1007.5 |
| 20260505015703 | 59 | 234 | 10.0 | 18.0 | 0.00 | 0.00 | 0.00 | 41 | 1007.4 |
| 20260505015603 | 59 | 236 | 10.0 | 18.0 | 0.00 | 0.00 | 0.00 | 41 | 1007.5 |
| 20260505015504 | 59 | 237 | 10.0 | 18.0 | 0.00 | 0.00 | 0.00 | 41 | 1007.4 |
| 20260505015403 | 59 | 238 | 10.0 | 18.0 | 0.00 | 0.00 | 0.00 | 41 | 1007.4 |
| 20260505015304 | 59 | 238 | 10.0 | 13.0 | 0.00 | 0.00 | 0.00 | 41 | 1007.4 |
| 20260505015203 | 59 | 239 | 11.0 | 14.0 | 0.00 | 0.00 | 0.00 | 41 | 1007.4 |
| 20260505015104 | 59 | 239 | 11.0 | 14.0 | 0.00 | 0.00 | 0.00 | 41 | 1007.4 |
| 20260505015003 | 60 | 239 | 11.0 | 14.0 | 0.00 | 0.00 | 0.00 | 41 | 1007.5 |
| 20260505014903 | 60 | 239 | 11.0 | 14.0 | 0.00 | 0.00 | 0.00 | 40 | 1007.4 |
| 20260505014804 | 60 | 239 | 11.0 | 14.0 | 0.00 | 0.00 | 0.00 | 40 | 1007.4 |
| 20260505014703 | 60 | 240 | 11.0 | 14.0 | 0.00 | 0.00 | 0.00 | 40 | 1007.4 |
| 20260505014603 | 60 | 239 | 11.0 | 14.0 | 0.00 | 0.00 | 0.00 | 40 | 1007.4 |
| 20260505014504 | 60 | 239 | 11.0 | 14.0 | 0.00 | 0.00 | 0.00 | 40 | 1007.5 |
| 20260505014404 | 60 | 241 | 12.0 | 14.0 | 0.00 | 0.00 | 0.00 | 39 | 1007.4 |
| 20260505014203 | 60 | 243 | 12.0 | 15.0 | 0.00 | 0.00 | 0.00 | 39 | 1007.4 |
| 20260505014104 | 60 | 243 | 12.0 | 15.0 | 0.00 | 0.00 | 0.00 | 39 | 1007.4 |
| 20260505014003 | 60 | 243 | 12.0 | 15.0 | 0.00 | 0.00 | 0.00 | 39 | 1007.4 |
| 20260505013903 | 60 | 243 | 13.0 | 15.0 | 0.00 | 0.00 | 0.00 | 39 | 1007.3 |
| 20260505013804 | 60 | 244 | 13.0 | 18.0 | 0.00 | 0.00 | 0.00 | 39 | 1007.3 |
| 20260505013703 | 60 | 243 | 13.0 | 19.0 | 0.00 | 0.00 | 0.00 | 39 | 1007.3 |
| 20260505013603 | 60 | 242 | 13.0 | 19.0 | 0.00 | 0.00 | 0.00 | 38 | 1007.3 |
| 20260505013504 | 60 | 242 | 13.0 | 19.0 | 0.00 | 0.00 | 0.00 | 38 | 1007.3 |
| 20260505013403 | 60 | 241 | 13.0 | 19.0 | 0.00 | 0.00 | 0.00 | 38 | 1007.3 |
| 20260505013203 | 60 | 240 | 13.0 | 19.0 | 0.00 | 0.00 | 0.00 | 38 | 1007.3 |
| 20260505013104 | 60 | 239 | 13.0 | 19.0 | 0.00 | 0.00 | 0.00 | 38 | 1007.3 |
| 20260505013003 | 60 | 240 | 13.0 | 19.0 | 0.00 | 0.00 | 0.00 | 38 | 1007.3 |
| 20260505012903 | 60 | 240 | 13.0 | 19.0 | 0.00 | 0.00 | 0.00 | 38 | 1007.3 |
| 20260505012804 | 60 | 240 | 13.0 | 19.0 | 0.00 | 0.00 | 0.00 | 37 | 1007.3 |
| 20260505012704 | 60 | 241 | 13.0 | 19.0 | 0.00 | 0.00 | 0.00 | 37 | 1007.3 |
| 20260505012603 | 60 | 244 | 13.0 | 19.0 | 0.00 | 0.00 | 0.00 | 38 | 1007.3 |
| 20260505012503 | 60 | 245 | 13.0 | 16.0 | 0.00 | 0.00 | 0.00 | 37 | 1007.3 |
| 20260505012404 | 60 | 247 | 14.0 | 16.0 | 0.00 | 0.00 | 0.00 | 38 | 1007.3 |
| 20260505012304 | 60 | 249 | 14.0 | 19.0 | 0.00 | 0.00 | 0.00 | 37 | 1007.3 |
| 20260505012203 | 60 | 251 | 14.0 | 19.0 | 0.00 | 0.00 | 0.00 | 37 | 1007.3 |
| 20260505012105 | 60 | 254 | 14.0 | 19.0 | 0.00 | 0.00 | 0.00 | 37 | 1007.3 |
| 20260505012003 | 61 | 255 | 14.0 | 19.0 | 0.00 | 0.00 | 0.00 | 37 | 1007.3 |
| 20260505011904 | 61 | 256 | 15.0 | 19.0 | 0.00 | 0.00 | 0.00 | 37 | 1007.3 |
| 20260505011804 | 61 | 257 | 15.0 | 19.0 | 0.00 | 0.00 | 0.00 | 36 | 1007.3 |
| 20260505011704 | 61 | 257 | 15.0 | 22.0 | 0.00 | 0.00 | 0.00 | 36 | 1007.3 |
| 20260505011404 | 61 | 259 | 15.0 | 22.0 | 0.00 | 0.00 | 0.00 | 36 | 1007.3 |
| 20260505011304 | 61 | 259 | 14.0 | 22.0 | 0.00 | 0.00 | 0.00 | 36 | 1007.3 |
| 20260505011203 | 61 | 259 | 14.0 | 22.0 | 0.00 | 0.00 | 0.00 | 36 | 1007.3 |
| 20260505011103 | 61 | 258 | 14.0 | 22.0 | 0.00 | 0.00 | 0.00 | 37 | 1007.3 |
| 20260505011004 | 61 | 258 | 14.0 | 22.0 | 0.00 | 0.00 | 0.00 | 37 | 1007.3 |
| 20260505010903 | 61 | 258 | 14.0 | 22.0 | 0.00 | 0.00 | 0.00 | 37 | 1007.3 |
| 20260505010803 | 61 | 259 | 14.0 | 22.0 | 0.00 | 0.00 | 0.00 | 36 | 1007.3 |
| 20260505010704 | 61 | 258 | 13.0 | 21.0 | 0.00 | 0.00 | 0.00 | 36 | 1007.4 |
| 20260505010604 | 61 | 257 | 13.0 | 21.0 | 0.00 | 0.00 | 0.00 | 37 | 1007.4 |
| 20260505010503 | 61 | 258 | 13.0 | 21.0 | 0.00 | 0.00 | 0.00 | 37 | 1007.5 |
| 20260505010403 | 61 | 260 | 13.0 | 21.0 | 0.00 | 0.00 | 0.00 | 37 | 1007.5 |
| 20260505010304 | 61 | 260 | 13.0 | 21.0 | 0.00 | 0.00 | 0.00 | 37 | 1007.5 |
| 20260505010203 | 61 | 261 | 13.0 | 21.0 | 0.00 | 0.00 | 0.00 | 37 | 1007.5 |
| 20260505010103 | 61 | 263 | 13.0 | 20.0 | 0.00 | 0.00 | 0.00 | 37 | 1007.5 |
| 20260505010004 | 61 | 264 | 13.0 | 20.0 | 0.00 | 0.00 | 0.00 | 36 | 1007.5 |
| 20260505005904 | 61 | 264 | 12.0 | 20.0 | 0.00 | 0.00 | 0.00 | 38 | 1007.5 |
| 20260505005803 | 61 | 263 | 12.0 | 20.0 | 0.00 | 0.00 | 0.00 | 38 | 1007.5 |
| 20260505005704 | 61 | 265 | 12.0 | 20.0 | 0.00 | 0.00 | 0.00 | 38 | 1007.5 |
| 20260505005604 | 61 | 266 | 12.0 | 20.0 | 0.00 | 0.00 | 0.00 | 38 | 1007.5 |
| 20260505005503 | 61 | 265 | 12.0 | 20.0 | 0.00 | 0.00 | 0.00 | 38 | 1007.5 |
| 20260505005404 | 61 | 265 | 12.0 | 20.0 | 0.00 | 0.00 | 0.00 | 38 | 1007.6 |
| 20260505005304 | 61 | 264 | 12.0 | 18.0 | 0.00 | 0.00 | 0.00 | 39 | 1007.6 |
| 20260505005203 | 61 | 265 | 12.0 | 18.0 | 0.00 | 0.00 | 0.00 | 39 | 1007.6 |
| 20260505005104 | 61 | 265 | 12.0 | 18.0 | 0.00 | 0.00 | 0.00 | 39 | 1007.7 |
| 20260505005004 | 61 | 264 | 12.0 | 18.0 | 0.00 | 0.00 | 0.00 | 39 | 1007.6 |
| 20260505004903 | 61 | 264 | 12.0 | 18.0 | 0.00 | 0.00 | 0.00 | 39 | 1007.6 |
| 20260505004803 | 61 | 265 | 12.0 | 18.0 | 0.00 | 0.00 | 0.00 | 39 | 1007.6 |
| 20260505004704 | 61 | 266 | 12.0 | 19.0 | 0.00 | 0.00 | 0.00 | 38 | 1007.6 |
| 20260505004603 | 61 | 266 | 13.0 | 19.0 | 0.00 | 0.00 | 0.00 | 38 | 1007.6 |
| 20260505004504 | 61 | 266 | 13.0 | 19.0 | 0.00 | 0.00 | 0.00 | 38 | 1007.5 |
| 20260505004404 | 61 | 265 | 13.0 | 19.0 | 0.00 | 0.00 | 0.00 | 38 | 1007.6 |
| 20260505004303 | 61 | 264 | 12.0 | 19.0 | 0.00 | 0.00 | 0.00 | 38 | 1007.6 |
| 20260505004203 | 61 | 263 | 13.0 | 19.0 | 0.00 | 0.00 | 0.00 | 38 | 1007.6 |
| 20260505004104 | 61 | 264 | 13.0 | 19.0 | 0.00 | 0.00 | 0.00 | 38 | 1007.6 |
| 20260505004004 | 61 | 266 | 13.0 | 21.0 | 0.00 | 0.00 | 0.00 | 40 | 1007.7 |
| 20260505003903 | 61 | 266 | 13.0 | 21.0 | 0.00 | 0.00 | 0.00 | 40 | 1007.8 |
| 20260505003804 | 61 | 266 | 13.0 | 21.0 | 0.00 | 0.00 | 0.00 | 39 | 1007.7 |
| 20260505003704 | 61 | 266 | 13.0 | 21.0 | 0.00 | 0.00 | 0.00 | 39 | 1007.7 |
| 20260505003603 | 61 | 267 | 13.0 | 21.0 | 0.00 | 0.00 | 0.00 | 39 | 1007.7 |
| 20260505003503 | 61 | 267 | 13.0 | 21.0 | 0.00 | 0.00 | 0.00 | 40 | 1007.8 |
| 20260505003404 | 61 | 267 | 13.0 | 21.0 | 0.00 | 0.00 | 0.00 | 40 | 1007.8 |
| 20260505003303 | 61 | 268 | 14.0 | 21.0 | 0.00 | 0.00 | 0.00 | 40 | 1007.8 |
| 20260505003203 | 61 | 268 | 14.0 | 21.0 | 0.00 | 0.00 | 0.00 | 40 | 1007.8 |
| 20260505003104 | 61 | 268 | 14.0 | 21.0 | 0.00 | 0.00 | 0.00 | 39 | 1007.8 |
| 20260505003003 | 61 | 268 | 14.0 | 20.0 | 0.00 | 0.00 | 0.00 | 39 | 1007.9 |
| 20260505002903 | 61 | 268 | 14.0 | 20.0 | 0.00 | 0.00 | 0.00 | 40 | 1007.9 |
| 20260505002804 | 61 | 266 | 14.0 | 20.0 | 0.00 | 0.00 | 0.00 | 40 | 1007.9 |
| 20260505002704 | 61 | 266 | 13.0 | 20.0 | 0.00 | 0.00 | 0.00 | 40 | 1008.0 |
| 20260505002603 | 61 | 265 | 13.0 | 20.0 | 0.00 | 0.00 | 0.00 | 40 | 1007.9 |
| 20260505002503 | 61 | 266 | 13.0 | 20.0 | 0.00 | 0.00 | 0.00 | 40 | 1007.9 |
| 20260505002304 | 61 | 268 | 13.0 | 20.0 | 0.00 | 0.00 | 0.00 | 39 | 1008.0 |
| 20260505002203 | 61 | 268 | 14.0 | 20.0 | 0.00 | 0.00 | 0.00 | 40 | 1008.0 |
| 20260505002104 | 61 | 268 | 14.0 | 20.0 | 0.00 | 0.00 | 0.00 | 40 | 1008.0 |
| 20260505002004 | 61 | 268 | 14.0 | 20.0 | 0.00 | 0.00 | 0.00 | 39 | 1008.0 |
| 20260505001903 | 61 | 268 | 14.0 | 22.0 | 0.00 | 0.00 | 0.00 | 39 | 1008.0 |
| 20260505001803 | 61 | 270 | 14.0 | 24.0 | 0.00 | 0.00 | 0.00 | 39 | 1008.1 |
| 20260505001704 | 61 | 270 | 14.0 | 24.0 | 0.00 | 0.00 | 0.00 | 40 | 1008.0 |
| 20260505001603 | 61 | 270 | 14.0 | 24.0 | 0.00 | 0.00 | 0.00 | 40 | 1008.0 |
| 20260505001503 | 61 | 270 | 14.0 | 24.0 | 0.00 | 0.00 | 0.00 | 39 | 1008.0 |
| 20260505001403 | 61 | 269 | 14.0 | 24.0 | 0.00 | 0.00 | 0.00 | 40 | 1008.1 |
| 20260505001304 | 61 | 267 | 15.0 | 24.0 | 0.00 | 0.00 | 0.00 | 39 | 1008.1 |
| 20260505001203 | 61 | 266 | 15.0 | 24.0 | 0.00 | 0.00 | 0.00 | 39 | 1008.1 |
| 20260505001103 | 61 | 264 | 15.0 | 24.0 | 0.00 | 0.00 | 0.00 | 39 | 1008.1 |
| 20260505001004 | 61 | 263 | 15.0 | 24.0 | 0.00 | 0.00 | 0.00 | 39 | 1008.2 |
| 20260505000904 | 61 | 261 | 15.0 | 24.0 | 0.00 | 0.00 | 0.00 | 39 | 1008.2 |
| 20260505000803 | 61 | 259 | 16.0 | 23.0 | 0.00 | 0.00 | 0.00 | 39 | 1008.2 |
| 20260505000704 | 61 | 257 | 16.0 | 23.0 | 0.00 | 0.00 | 0.00 | 38 | 1008.2 |
| 20260505000603 | 61 | 257 | 17.0 | 23.0 | 0.00 | 0.00 | 0.00 | 38 | 1008.2 |
| 20260505000503 | 61 | 257 | 17.0 | 23.0 | 0.00 | 0.00 | 0.00 | 39 | 1008.3 |
| 20260505000405 | 61 | 258 | 18.0 | 27.0 | 0.00 | 0.00 | 0.00 | 39 | 1008.3 |
| 20260505000319 | 61 | 257 | 18.0 | 27.0 | 0.00 | 0.00 | 0.00 | 38 | 1008.3 |
| 20260505000204 | 61 | 256 | 19.0 | 27.0 | 0.00 | 0.00 | 0.00 | 38 | 1008.4 |
| 20260505000103 | 61 | 256 | 20.0 | 27.0 | 0.00 | 0.00 | 0.00 | 38 | 1008.4 |
| 20260505000004 | 61 | 255 | 20.0 | 27.0 | 0.00 | 0.00 | 0.00 | 38 | 1008.4 |
| 20260504235903 | 61 | 256 | 20.0 | 27.0 | 0.00 | 0.00 | 0.00 | 39 | 1008.4 |
| 20260504235803 | 61 | 256 | 21.0 | 31.0 | 0.00 | 0.00 | 0.00 | 39 | 1008.5 |
| 20260504235704 | 61 | 256 | 21.0 | 31.0 | 0.00 | 0.00 | 0.00 | 39 | 1008.5 |
| 20260504235603 | 60 | 256 | 21.0 | 31.0 | 0.00 | 0.00 | 0.00 | 39 | 1008.6 |
| 20260504235503 | 60 | 256 | 21.0 | 31.0 | 0.00 | 0.00 | 0.00 | 38 | 1008.6 |
| 20260504235403 | 60 | 254 | 20.0 | 31.0 | 0.00 | 0.00 | 0.00 | 39 | 1008.6 |
| 20260504235304 | 60 | 255 | 20.0 | 31.0 | 0.00 | 0.00 | 0.00 | 39 | 1008.5 |
| 20260504235203 | 60 | 256 | 20.0 | 31.0 | 0.00 | 0.00 | 0.00 | 39 | 1008.6 |
| 20260504235104 | 60 | 256 | 19.0 | 31.0 | 0.00 | 0.00 | 0.00 | 39 | 1008.5 |
| 20260504235004 | 60 | 256 | 19.0 | 31.0 | 0.00 | 0.00 | 0.00 | 39 | 1008.6 |
| 20260504234903 | 60 | 257 | 18.0 | 31.0 | 0.00 | 0.00 | 0.00 | 39 | 1008.6 |
| 20260504234802 | 60 | 258 | 18.0 | 30.0 | 0.00 | 0.00 | 0.00 | 39 | 1008.6 |
| 20260504234702 | 60 | 258 | 17.0 | 30.0 | 0.00 | 0.00 | 0.00 | 39 | 1008.5 |
| 20260504234602 | 60 | 257 | 17.0 | 29.0 | 0.00 | 0.00 | 0.00 | 39 | 1008.6 |
| 20260504234502 | 60 | 257 | 17.0 | 29.0 | 0.00 | 0.00 | 0.00 | 39 | 1008.5 |
| 20260504234403 | 60 | 259 | 17.0 | 28.0 | 0.00 | 0.00 | 0.00 | 39 | 1008.5 |
| 20260504234302 | 60 | 260 | 17.0 | 28.0 | 0.00 | 0.00 | 0.00 | 39 | 1008.6 |
| 20260504234202 | 60 | 260 | 17.0 | 28.0 | 0.00 | 0.00 | 0.00 | 39 | 1008.6 |
| 20260504234102 | 60 | 260 | 17.0 | 28.0 | 0.00 | 0.00 | 0.00 | 39 | 1008.6 |
| 20260504233902 | 60 | 263 | 17.0 | 25.0 | 0.00 | 0.00 | 0.00 | 38 | 1008.7 |
| 20260504233802 | 61 | 264 | 17.0 | 25.0 | 0.00 | 0.00 | 0.00 | 38 | 1008.7 |
| 20260504233702 | 60 | 265 | 17.0 | 25.0 | 0.00 | 0.00 | 0.00 | 39 | 1008.5 |
| 20260504233502 | 61 | 269 | 17.0 | 25.0 | 0.00 | 0.00 | 0.00 | 38 | 1008.5 |
| 20260504233402 | 60 | 270 | 16.0 | 25.0 | 0.00 | 0.00 | 0.00 | 38 | 1008.5 |
| 20260504233303 | 61 | 270 | 16.0 | 26.0 | 0.00 | 0.00 | 0.00 | 38 | 1008.5 |
| 20260504233202 | 60 | 270 | 16.0 | 26.0 | 0.00 | 0.00 | 0.00 | 38 | 1008.5 |
| 20260504233102 | 61 | 272 | 16.0 | 26.0 | 0.00 | 0.00 | 0.00 | 38 | 1008.5 |
| 20260504232903 | 61 | 272 | 15.0 | 26.0 | 0.00 | 0.00 | 0.00 | 38 | 1008.5 |
| 20260504232702 | 61 | 274 | 15.0 | 26.0 | 0.00 | 0.00 | 0.00 | 37 | 1008.4 |
| 20260504232602 | 61 | 274 | 14.0 | 26.0 | 0.00 | 0.00 | 0.00 | 37 | 1008.3 |
| 20260504232502 | 61 | 274 | 14.0 | 26.0 | 0.00 | 0.00 | 0.00 | 37 | 1008.3 |
| 20260504232402 | 61 | 274 | 14.0 | 26.0 | 0.00 | 0.00 | 0.00 | 38 | 1008.2 |
| 20260504232303 | 61 | 275 | 13.0 | 23.0 | 0.00 | 0.00 | 0.00 | 38 | 1008.2 |
| 20260504232202 | 61 | 275 | 13.0 | 23.0 | 0.00 | 0.00 | 0.00 | 38 | 1008.2 |
| 20260504232002 | 60 | 275 | 13.0 | 24.0 | 0.00 | 0.00 | 0.00 | 38 | 1008.1 |
| 20260504231902 | 60 | 276 | 13.0 | 24.0 | 0.00 | 0.00 | 0.00 | 38 | 1008.1 |
| 20260504231802 | 60 | 275 | 12.0 | 24.0 | 0.00 | 0.00 | 0.00 | 39 | 1008.1 |
| 20260504231702 | 60 | 275 | 12.0 | 24.0 | 0.00 | 0.00 | 0.00 | 38 | 1008.1 |
| 20260504231603 | 60 | 274 | 12.0 | 24.0 | 0.00 | 0.00 | 0.00 | 38 | 1008.2 |
| 20260504231502 | 60 | 276 | 12.0 | 24.0 | 0.00 | 0.00 | 0.00 | 38 | 1008.0 |
| 20260504231402 | 60 | 276 | 12.0 | 24.0 | 0.00 | 0.00 | 0.00 | 39 | 1008.1 |
| 20260504231302 | 60 | 275 | 12.0 | 24.0 | 0.00 | 0.00 | 0.00 | 39 | 1008.1 |
| 20260504231202 | 60 | 275 | 12.0 | 24.0 | 0.00 | 0.00 | 0.00 | 39 | 1008.1 |
| 20260504231102 | 60 | 274 | 12.0 | 24.0 | 0.00 | 0.00 | 0.00 | 39 | 1008.1 |
| 20260504231002 | 60 | 274 | 12.0 | 22.0 | 0.00 | 0.00 | 0.00 | 39 | 1008.1 |
| 20260504230902 | 60 | 274 | 12.0 | 22.0 | 0.00 | 0.00 | 0.00 | 39 | 1008.2 |
| 20260504230802 | 60 | 274 | 13.0 | 22.0 | 0.00 | 0.00 | 0.00 | 39 | 1008.2 |
| 20260504230702 | 60 | 273 | 13.0 | 22.0 | 0.00 | 0.00 | 0.00 | 39 | 1008.2 |
| 20260504230603 | 60 | 273 | 13.0 | 22.0 | 0.00 | 0.00 | 0.00 | 39 | 1008.1 |
| 20260504230502 | 60 | 272 | 13.0 | 22.0 | 0.00 | 0.00 | 0.00 | 39 | 1008.1 |
| 20260504230402 | 60 | 272 | 14.0 | 22.0 | 0.00 | 0.00 | 0.00 | 39 | 1008.2 |
| 20260504230302 | 60 | 271 | 14.0 | 22.0 | 0.00 | 0.00 | 0.00 | 38 | 1008.1 |
| 20260504230203 | 60 | 270 | 15.0 | 22.0 | 0.00 | 0.00 | 0.00 | 39 | 1008.0 |
| 20260504230002 | 60 | 270 | 16.0 | 23.0 | 0.00 | 0.00 | 0.00 | 39 | 1008.5 |
| 20260504225902 | 60 | 270 | 16.0 | 23.0 | 0.00 | 0.00 | 0.00 | 40 | 1008.4 |
| 20260504225802 | 60 | 270 | 16.0 | 26.0 | 0.00 | 0.00 | 0.00 | 39 | 1008.4 |
| 20260504225702 | 60 | 270 | 17.0 | 26.0 | 0.00 | 0.00 | 0.00 | 40 | 1008.4 |
| 20260504225503 | 60 | 269 | 17.0 | 26.0 | 0.00 | 0.00 | 0.00 | 40 | 1008.5 |
| 20260504225402 | 60 | 268 | 17.0 | 26.0 | 0.00 | 0.00 | 0.00 | 40 | 1008.5 |
| 20260504225304 | 60 | 267 | 17.0 | 26.0 | 0.00 | 0.00 | 0.00 | 40 | 1008.5 |
| 20260504225202 | 60 | 266 | 17.0 | 26.0 | 0.00 | 0.00 | 0.00 | 41 | 1008.6 |
| 20260504225102 | 60 | 265 | 17.0 | 27.0 | 0.00 | 0.00 | 0.00 | 40 | 1008.6 |
| 20260504225002 | 60 | 265 | 17.0 | 27.0 | 0.00 | 0.00 | 0.00 | 39 | 1008.5 |
| 20260504224902 | 60 | 265 | 16.0 | 27.0 | 0.00 | 0.00 | 0.00 | 39 | 1008.5 |
| 20260504224602 | 60 | 267 | 16.0 | 27.0 | 0.00 | 0.00 | 0.00 | 39 | 1008.4 |
| 20260504224502 | 60 | 266 | 16.0 | 27.0 | 0.00 | 0.00 | 0.00 | 38 | 1008.5 |
| 20260504224402 | 60 | 266 | 15.0 | 27.0 | 0.00 | 0.00 | 0.00 | 38 | 1008.5 |
| 20260504224302 | 60 | 267 | 15.0 | 27.0 | 0.00 | 0.00 | 0.00 | 37 | 1008.5 |
| 20260504224202 | 60 | 269 | 15.0 | 27.0 | 0.00 | 0.00 | 0.00 | 37 | 1008.5 |
| 20260504224102 | 60 | 269 | 15.0 | 23.0 | 0.00 | 0.00 | 0.00 | 36 | 1008.5 |
| 20260504224002 | 61 | 268 | 15.0 | 23.0 | 0.00 | 0.00 | 0.00 | 36 | 1008.4 |
| 20260504223902 | 61 | 268 | 15.0 | 23.0 | 0.00 | 0.00 | 0.00 | 36 | 1008.5 |
| 20260504223802 | 61 | 267 | 15.0 | 22.0 | 0.00 | 0.00 | 0.00 | 35 | 1008.4 |
| 20260504223703 | 61 | 265 | 16.0 | 22.0 | 0.00 | 0.00 | 0.00 | 35 | 1008.4 |
| 20260504223602 | 61 | 263 | 16.0 | 22.0 | 0.00 | 0.00 | 0.00 | 35 | 1008.4 |
| 20260504223502 | 61 | 266 | 16.0 | 24.0 | 0.00 | 0.00 | 0.00 | 34 | 1008.2 |
| 20260504223403 | 61 | 267 | 16.0 | 24.0 | 0.00 | 0.00 | 0.00 | 34 | 1008.3 |
| 20260504223302 | 61 | 267 | 16.0 | 24.0 | 0.00 | 0.00 | 0.00 | 35 | 1008.4 |
| 20260504223202 | 61 | 268 | 17.0 | 24.0 | 0.00 | 0.00 | 0.00 | 34 | 1008.4 |
| 20260504223102 | 61 | 268 | 17.0 | 24.0 | 0.00 | 0.00 | 0.00 | 35 | 1008.4 |
| 20260504223002 | 61 | 267 | 17.0 | 24.0 | 0.00 | 0.00 | 0.00 | 35 | 1008.4 |
| 20260504222803 | 61 | 267 | 17.0 | 24.0 | 0.00 | 0.00 | 0.00 | 35 | 1008.5 |
| 20260504222702 | 61 | 268 | 18.0 | 24.0 | 0.00 | 0.00 | 0.00 | 34 | 1008.3 |
| 20260504222602 | 61 | 269 | 18.0 | 24.0 | 0.00 | 0.00 | 0.00 | 34 | 1008.2 |
| 20260504222502 | 61 | 267 | 18.0 | 26.0 | 0.00 | 0.00 | 0.00 | 34 | 1008.2 |
| 20260504222304 | 61 | 265 | 17.0 | 26.0 | 0.00 | 0.00 | 0.00 | 34 | 1008.1 |
| 20260504222202 | 61 | 264 | 17.0 | 26.0 | 0.00 | 0.00 | 0.00 | 35 | 1008.2 |
| 20260504222102 | 61 | 264 | 16.0 | 28.0 | 0.00 | 0.00 | 0.00 | 35 | 1008.2 |
| 20260504222002 | 61 | 264 | 15.0 | 28.0 | 0.00 | 0.00 | 0.00 | 35 | 1008.2 |
| 20260504221902 | 61 | 263 | 15.0 | 28.0 | 0.00 | 0.00 | 0.00 | 35 | 1008.2 |
| 20260504221802 | 61 | 261 | 14.0 | 28.0 | 0.00 | 0.00 | 0.00 | 35 | 1008.2 |
| 20260504221702 | 61 | 260 | 13.0 | 28.0 | 0.00 | 0.00 | 0.00 | 35 | 1008.1 |
| 20260504221602 | 61 | 258 | 12.0 | 28.0 | 0.00 | 0.00 | 0.00 | 34 | 1008.1 |
| 20260504221502 | 62 | 256 | 12.0 | 28.0 | 0.00 | 0.00 | 0.00 | 34 | 1008.2 |
| 20260504221402 | 62 | 253 | 11.0 | 28.0 | 0.00 | 0.00 | 0.00 | 33 | 1008.1 |
| 20260504221302 | 62 | 251 | 11.0 | 28.0 | 0.00 | 0.00 | 0.00 | 33 | 1008.1 |
| 20260504221202 | 62 | 250 | 11.0 | 28.0 | 0.00 | 0.00 | 0.00 | 32 | 1008.1 |
| 20260504221102 | 63 | 248 | 11.0 | 23.0 | 0.00 | 0.00 | 0.00 | 32 | 1008.1 |
| 20260504221003 | 63 | 245 | 11.0 | 23.0 | 0.00 | 0.00 | 0.00 | 32 | 1008.3 |
| 20260504220902 | 63 | 244 | 12.0 | 23.0 | 0.00 | 0.00 | 0.00 | 31 | 1008.2 |
| 20260504220802 | 63 | 245 | 12.0 | 23.0 | 0.00 | 0.00 | 0.00 | 29 | 1008.0 |
| 20260504220702 | 63 | 244 | 13.0 | 21.0 | 0.00 | 0.00 | 0.00 | 28 | 1008.0 |
| 20260504220602 | 63 | 241 | 14.0 | 21.0 | 0.00 | 0.00 | 0.00 | 27 | 1008.0 |
| 20260504220502 | 63 | 241 | 14.0 | 21.0 | 0.00 | 0.00 | 0.00 | 28 | 1008.1 |
| 20260504220402 | 63 | 243 | 15.0 | 24.0 | 0.00 | 0.00 | 0.00 | 27 | 1008.0 |
| 20260504220303 | 63 | 242 | 16.0 | 24.0 | 0.00 | 0.00 | 0.00 | 28 | 1008.1 |
| 20260504220202 | 63 | 242 | 16.0 | 24.0 | 0.00 | 0.00 | 0.00 | 27 | 1008.1 |
| 20260504220002 | 63 | 244 | 17.0 | 24.0 | 0.00 | 0.00 | 0.00 | 28 | 1008.2 |
| 20260504215903 | 62 | 246 | 17.0 | 27.0 | 0.00 | 0.00 | 0.00 | 28 | 1008.2 |
| 20260504215802 | 62 | 246 | 17.0 | 27.0 | 0.00 | 0.00 | 0.00 | 29 | 1008.3 |
| 20260504215702 | 62 | 247 | 17.0 | 27.0 | 0.00 | 0.00 | 0.00 | 30 | 1008.3 |
| 20260504215602 | 62 | 249 | 17.0 | 32.0 | 0.00 | 0.00 | 0.00 | 31 | 1008.2 |
| 20260504215502 | 61 | 252 | 17.0 | 32.0 | 0.00 | 0.00 | 0.00 | 36 | 1008.5 |
| 20260504215402 | 61 | 254 | 18.0 | 32.0 | 0.00 | 0.00 | 0.00 | 36 | 1008.5 |
| 20260504215304 | 61 | 256 | 18.0 | 32.0 | 0.00 | 0.00 | 0.00 | 36 | 1008.5 |
| 20260504215202 | 61 | 257 | 18.0 | 32.0 | 0.00 | 0.00 | 0.00 | 35 | 1008.7 |
| 20260504215002 | 61 | 257 | 18.0 | 32.0 | 0.00 | 0.00 | 0.00 | 36 | 1008.7 |
| 20260504214903 | 61 | 259 | 18.0 | 32.0 | 0.00 | 0.00 | 0.00 | 36 | 1008.8 |
| 20260504214802 | 61 | 258 | 18.0 | 32.0 | 0.00 | 0.00 | 0.00 | 36 | 1008.8 |
| 20260504214702 | 61 | 257 | 17.0 | 32.0 | 0.00 | 0.00 | 0.00 | 36 | 1008.8 |
| 20260504214602 | 62 | 258 | 17.0 | 29.0 | 0.00 | 0.00 | 0.00 | 36 | 1008.9 |
| 20260504214503 | 61 | 258 | 16.0 | 29.0 | 0.00 | 0.00 | 0.00 | 36 | 1008.9 |
| 20260504214402 | 61 | 258 | 15.0 | 29.0 | 0.00 | 0.00 | 0.00 | 36 | 1008.9 |
| 20260504214302 | 61 | 259 | 14.0 | 29.0 | 0.00 | 0.00 | 0.00 | 36 | 1009.0 |
| 20260504214103 | 62 | 260 | 13.0 | 29.0 | 0.00 | 0.00 | 0.00 | 36 | 1009.0 |
| 20260504214002 | 62 | 260 | 12.0 | 29.0 | 0.00 | 0.00 | 0.00 | 36 | 1009.0 |
| 20260504213902 | 62 | 259 | 11.0 | 29.0 | 0.00 | 0.00 | 0.00 | 36 | 1009.1 |
| 20260504213802 | 62 | 259 | 11.0 | 29.0 | 0.00 | 0.00 | 0.00 | 36 | 1009.1 |
| 20260504213602 | 63 | 259 | 10.0 | 29.0 | 0.00 | 0.00 | 0.00 | 34 | 1009.1 |
| 20260504213502 | 63 | 256 | 10.0 | 29.0 | 0.00 | 0.00 | 0.00 | 33 | 1009.1 |
| 20260504213402 | 64 | 252 | 9.0 | 19.0 | 0.00 | 0.00 | 0.00 | 31 | 1009.0 |
| 20260504213302 | 64 | 249 | 9.0 | 19.0 | 0.00 | 0.00 | 0.00 | 30 | 1008.9 |
| 20260504213202 | 64 | 250 | 9.0 | 18.0 | 0.00 | 0.00 | 0.00 | 30 | 1008.8 |
| 20260504213102 | 63 | 251 | 9.0 | 18.0 | 0.00 | 0.00 | 0.00 | 30 | 1008.8 |
| 20260504213003 | 63 | 251 | 9.0 | 18.0 | 0.00 | 0.00 | 0.00 | 30 | 1008.9 |
| 20260504212902 | 64 | 252 | 8.0 | 18.0 | 0.00 | 0.00 | 0.00 | 29 | 1008.9 |
| 20260504212802 | 63 | 253 | 8.0 | 18.0 | 0.00 | 0.00 | 0.00 | 29 | 1008.9 |
| 20260504212702 | 63 | 255 | 8.0 | 18.0 | 0.00 | 0.00 | 0.00 | 29 | 1008.8 |
| 20260504212602 | 63 | 258 | 8.0 | 18.0 | 0.00 | 0.00 | 0.00 | 28 | 1008.9 |
| 20260504212402 | 63 | 267 | 8.0 | 18.0 | 0.00 | 0.00 | 0.00 | 30 | 1008.9 |
| 20260504212303 | 64 | 269 | 8.0 | 18.0 | 0.00 | 0.00 | 0.00 | 29 | 1008.8 |
| 20260504212202 | 64 | 270 | 8.0 | 13.0 | 0.00 | 0.00 | 0.00 | 29 | 1008.8 |
| 20260504212102 | 64 | 270 | 8.0 | 13.0 | 0.00 | 0.00 | 0.00 | 29 | 1008.8 |
| 20260504211903 | 64 | 271 | 8.0 | 13.0 | 0.00 | 0.00 | 0.00 | 29 | 1008.8 |
| 20260504211802 | 63 | 271 | 8.0 | 13.0 | 0.00 | 0.00 | 0.00 | 29 | 1008.7 |
| 20260504211702 | 63 | 272 | 8.0 | 13.0 | 0.00 | 0.00 | 0.00 | 29 | 1008.8 |
| 20260504211602 | 63 | 273 | 7.0 | 16.0 | 0.00 | 0.00 | 0.00 | 29 | 1008.8 |
| 20260504211502 | 63 | 273 | 7.0 | 16.0 | 0.00 | 0.00 | 0.00 | 28 | 1008.7 |
| 20260504211402 | 63 | 274 | 7.0 | 16.0 | 0.00 | 0.00 | 0.00 | 29 | 1008.7 |
| 20260504211302 | 63 | 275 | 7.0 | 16.0 | 0.00 | 0.00 | 0.00 | 29 | 1008.7 |
| 20260504211203 | 63 | 275 | 7.0 | 16.0 | 0.00 | 0.00 | 0.00 | 30 | 1008.7 |
| 20260504211102 | 63 | 276 | 7.0 | 16.0 | 0.00 | 0.00 | 0.00 | 30 | 1008.7 |
| 20260504211002 | 62 | 278 | 7.0 | 16.0 | 0.00 | 0.00 | 0.00 | 30 | 1008.7 |
| 20260504210903 | 62 | 283 | 7.0 | 16.0 | 0.00 | 0.00 | 0.00 | 31 | 1008.8 |
| 20260504210802 | 62 | 283 | 7.0 | 16.0 | 0.00 | 0.00 | 0.00 | 31 | 1008.7 |
| 20260504210702 | 62 | 286 | 7.0 | 16.0 | 0.00 | 0.00 | 0.00 | 32 | 1008.8 |
| 20260504210602 | 62 | 288 | 7.0 | 14.0 | 0.00 | 0.00 | 0.00 | 33 | 1008.8 |
| 20260504210503 | 62 | 293 | 7.0 | 14.0 | 0.00 | 0.00 | 0.00 | 34 | 1008.8 |
| 20260504210402 | 61 | 294 | 7.0 | 14.0 | 0.00 | 0.00 | 0.00 | 34 | 1009.0 |
| 20260504210302 | 61 | 295 | 7.0 | 14.0 | 0.00 | 0.00 | 0.00 | 35 | 1009.0 |
| 20260504210203 | 61 | 297 | 7.0 | 14.0 | 0.00 | 0.00 | 0.00 | 34 | 1008.9 |
| 20260504210002 | 61 | 298 | 8.0 | 14.0 | 0.00 | 0.00 | 0.00 | 35 | 1009.4 |
| 20260504205902 | 61 | 300 | 8.0 | 14.0 | 0.00 | 0.00 | 0.00 | 36 | 1009.3 |
| 20260504205802 | 61 | 300 | 8.0 | 14.0 | 0.00 | 0.00 | 0.00 | 37 | 1009.4 |
| 20260504205702 | 61 | 299 | 8.0 | 14.0 | 0.00 | 0.00 | 0.00 | 37 | 1009.4 |
| 20260504205602 | 61 | 301 | 9.0 | 15.0 | 0.00 | 0.00 | 0.00 | 37 | 1009.5 |
| 20260504205503 | 61 | 300 | 9.0 | 15.0 | 0.00 | 0.00 | 0.00 | 37 | 1009.5 |
| 20260504205402 | 61 | 303 | 9.0 | 15.0 | 0.00 | 0.00 | 0.00 | 37 | 1009.5 |
| 20260504205303 | 61 | 303 | 9.0 | 15.0 | 0.00 | 0.00 | 0.00 | 38 | 1009.5 |
| 20260504205202 | 61 | 303 | 9.0 | 16.0 | 0.00 | 0.00 | 0.00 | 41 | 1009.5 |
| 20260504205102 | 61 | 304 | 10.0 | 16.0 | 0.00 | 0.00 | 0.00 | 39 | 1009.5 |
| 20260504205002 | 61 | 305 | 10.0 | 16.0 | 0.00 | 0.00 | 0.00 | 39 | 1009.5 |
| 20260504204902 | 61 | 307 | 10.0 | 21.0 | 0.00 | 0.00 | 0.00 | 40 | 1009.5 |
| 20260504204803 | 61 | 308 | 10.0 | 21.0 | 0.00 | 0.00 | 0.00 | 39 | 1009.4 |
| 20260504204702 | 61 | 309 | 10.0 | 21.0 | 0.00 | 0.00 | 0.00 | 38 | 1009.4 |
| 20260504204602 | 61 | 309 | 10.0 | 21.0 | 0.00 | 0.00 | 0.00 | 39 | 1009.4 |
| 20260504204503 | 61 | 309 | 10.0 | 21.0 | 0.00 | 0.00 | 0.00 | 40 | 1009.5 |
| 20260504204402 | 61 | 309 | 11.0 | 21.0 | 0.00 | 0.00 | 0.00 | 41 | 1009.5 |
| 20260504204302 | 61 | 310 | 11.0 | 21.0 | 0.00 | 0.00 | 0.00 | 41 | 1009.5 |
| 20260504204202 | 61 | 310 | 11.0 | 21.0 | 0.00 | 0.00 | 0.00 | 41 | 1009.5 |
| 20260504204103 | 61 | 309 | 12.0 | 21.0 | 0.00 | 0.00 | 0.00 | 40 | 1009.4 |
| 20260504204002 | 61 | 310 | 12.0 | 21.0 | 0.00 | 0.00 | 0.00 | 39 | 1009.3 |
| 20260504203902 | 61 | 310 | 12.0 | 22.0 | 0.00 | 0.00 | 0.00 | 42 | 1009.5 |
| 20260504203803 | 61 | 310 | 13.0 | 23.0 | 0.00 | 0.00 | 0.00 | 40 | 1009.4 |
| 20260504203702 | 61 | 311 | 13.0 | 24.0 | 0.00 | 0.00 | 0.00 | 40 | 1009.4 |
| 20260504203602 | 61 | 310 | 14.0 | 24.0 | 0.00 | 0.00 | 0.00 | 41 | 1009.4 |
| 20260504203503 | 61 | 309 | 14.0 | 24.0 | 0.00 | 0.00 | 0.00 | 42 | 1009.2 |
| 20260504203402 | 61 | 310 | 15.0 | 24.0 | 0.00 | 0.00 | 0.00 | 39 | 1009.2 |
| 20260504203302 | 61 | 310 | 15.0 | 24.0 | 0.00 | 0.00 | 0.00 | 40 | 1009.4 |
| 20260504203202 | 61 | 311 | 16.0 | 24.0 | 0.00 | 0.00 | 0.00 | 40 | 1009.3 |
| 20260504203102 | 61 | 312 | 16.0 | 24.0 | 0.00 | 0.00 | 0.00 | 38 | 1009.3 |
| 20260504203002 | 61 | 313 | 16.0 | 24.0 | 0.00 | 0.00 | 0.00 | 39 | 1009.3 |
| 20260504202902 | 61 | 313 | 16.0 | 24.0 | 0.00 | 0.00 | 0.00 | 37 | 1009.4 |
| 20260504202803 | 61 | 313 | 17.0 | 24.0 | 0.00 | 0.00 | 0.00 | 39 | 1009.5 |
| 20260504202702 | 61 | 313 | 17.0 | 24.0 | 0.00 | 0.00 | 0.00 | 40 | 1009.5 |
| 20260504202602 | 61 | 315 | 17.0 | 29.0 | 0.00 | 0.00 | 0.00 | 39 | 1009.5 |
| 20260504202502 | 60 | 316 | 17.0 | 30.0 | 0.00 | 0.00 | 0.00 | 38 | 1009.5 |
| 20260504202402 | 60 | 316 | 17.0 | 30.0 | 0.00 | 0.00 | 0.00 | 39 | 1009.4 |
| 20260504202304 | 60 | 316 | 17.0 | 30.0 | 0.00 | 0.00 | 0.00 | 39 | 1009.4 |
| 20260504202202 | 60 | 315 | 17.0 | 30.0 | 0.00 | 0.00 | 0.00 | 41 | 1009.5 |
| 20260504202103 | 60 | 314 | 17.0 | 30.0 | 0.00 | 0.00 | 0.00 | 39 | 1009.4 |
| 20260504201902 | 60 | 313 | 16.0 | 30.0 | 0.00 | 0.00 | 0.00 | 39 | 1009.5 |
| 20260504201802 | 60 | 312 | 16.0 | 30.0 | 0.00 | 0.00 | 0.00 | 41 | 1009.5 |
| 20260504201703 | 60 | 312 | 16.0 | 30.0 | 0.00 | 0.00 | 0.00 | 40 | 1009.4 |
| 20260504201502 | 60 | 310 | 15.0 | 30.0 | 0.00 | 0.00 | 0.00 | 44 | 1009.6 |
| 20260504201402 | 60 | 310 | 15.0 | 30.0 | 0.00 | 0.00 | 0.00 | 42 | 1009.6 |
| 20260504201302 | 59 | 309 | 15.0 | 32.0 | 0.00 | 0.00 | 0.00 | 43 | 1009.3 |
| 20260504201202 | 59 | 310 | 15.0 | 32.0 | 0.00 | 0.00 | 0.00 | 43 | 1009.2 |
| 20260504201102 | 59 | 310 | 15.0 | 32.0 | 0.00 | 0.00 | 0.00 | 41 | 1009.1 |
| 20260504201003 | 59 | 311 | 15.0 | 32.0 | 0.00 | 0.00 | 0.00 | 41 | 1009.1 |
| 20260504200902 | 59 | 310 | 15.0 | 32.0 | 0.00 | 0.00 | 0.00 | 42 | 1009.2 |
| 20260504200802 | 59 | 310 | 15.0 | 32.0 | 0.00 | 0.00 | 0.00 | 43 | 1009.2 |
| 20260504200702 | 59 | 311 | 15.0 | 32.0 | 0.00 | 0.00 | 0.00 | 41 | 1009.1 |
| 20260504200602 | 60 | 312 | 16.0 | 32.0 | 0.00 | 0.00 | 0.00 | 40 | 1009.5 |
| 20260504200502 | 60 | 313 | 16.0 | 32.0 | 0.00 | 0.00 | 0.00 | 40 | 1009.6 |
| 20260504200402 | 60 | 312 | 16.0 | 32.0 | 0.00 | 0.00 | 0.00 | 39 | 1009.7 |
| 20260504200303 | 60 | 315 | 16.0 | 29.0 | 0.00 | 0.00 | 0.00 | 41 | 1009.6 |
| 20260504200202 | 60 | 314 | 16.0 | 29.0 | 0.00 | 0.00 | 0.00 | 40 | 1009.6 |
| 20260504200002 | 60 | 316 | 16.0 | 30.0 | 0.00 | 0.00 | 0.00 | 39 | 1009.7 |
| 20260504195902 | 61 | 316 | 15.0 | 30.0 | 0.00 | 0.00 | 0.00 | 39 | 1009.7 |
| 20260504195802 | 61 | 316 | 14.0 | 30.0 | 0.00 | 0.00 | 0.00 | 39 | 1009.7 |
| 20260504195703 | 61 | 315 | 14.0 | 30.0 | 0.00 | 0.00 | 0.00 | 37 | 1009.7 |
| 20260504195602 | 61 | 315 | 13.0 | 30.0 | 0.00 | 0.00 | 0.00 | 37 | 1009.8 |
| 20260504195502 | 61 | 318 | 12.0 | 30.0 | 0.00 | 0.00 | 0.00 | 36 | 1009.8 |
| 20260504195403 | 62 | 321 | 11.0 | 30.0 | 0.00 | 0.00 | 0.00 | 35 | 1009.9 |
| 20260504195304 | 62 | 322 | 10.0 | 30.0 | 0.00 | 0.00 | 0.00 | 34 | 1009.8 |
| 20260504194803 | 66 | 337 | 6.0 | 21.0 | 0.00 | 0.00 | 0.00 | 30 | 1009.9 |
| 20260504194202 | 69 | 11 | 4.0 | 10.0 | 0.00 | 0.00 | 0.00 | 29 | 1009.6 |
| 20260504193902 | 68 | 84 | 5.0 | 9.0 | 0.00 | 0.00 | 0.00 | 31 | 1009.7 |
| 20260504193702 | 68 | 85 | 6.0 | 9.0 | 0.00 | 0.00 | 0.00 | 33 | 1009.7 |
| 20260504193102 | 67 | 58 | 7.0 | 12.0 | 0.00 | 0.00 | 0.00 | 30 | 1009.6 |
| 20260504193002 | 66 | 55 | 8.0 | 12.0 | 0.00 | 0.00 | 0.00 | 31 | 1009.5 |
| 20260504192902 | 66 | 54 | 8.0 | 12.0 | 0.00 | 0.00 | 0.00 | 30 | 1009.6 |
| 20260504192702 | 66 | 63 | 8.0 | 14.0 | 0.00 | 0.00 | 0.00 | 32 | 1009.6 |
| 20260504192502 | 66 | 70 | 9.0 | 18.0 | 0.00 | 0.00 | 0.00 | 31 | 1009.6 |
| 20260504191802 | 66 | 88 | 7.0 | 18.0 | 0.00 | 0.00 | 0.00 | 31 | 1009.6 |
| 20260504191702 | 66 | 89 | 7.0 | 18.0 | 0.00 | 0.00 | 0.00 | 31 | 1009.6 |
| 20260504191602 | 66 | 90 | 7.0 | 18.0 | 0.00 | 0.00 | 0.00 | 31 | 1009.7 |
| 20260504191502 | 67 | 94 | 7.0 | 14.0 | 0.00 | 0.00 | 0.00 | 31 | 1009.8 |
| 20260504191202 | 66 | 106 | 7.0 | 13.0 | 0.00 | 0.00 | 0.00 | 31 | 1009.7 |
| 20260504191103 | 66 | 110 | 7.0 | 13.0 | 0.00 | 0.00 | 0.00 | 31 | 1009.7 |
| 20260504191002 | 66 | 110 | 7.0 | 13.0 | 0.00 | 0.00 | 0.00 | 30 | 1009.8 |
| 20260504190703 | 66 | 109 | 7.0 | 13.0 | 0.00 | 0.00 | 0.00 | 31 | 1009.8 |
| 20260504190602 | 66 | 109 | 7.0 | 13.0 | 0.00 | 0.00 | 0.00 | 31 | 1009.9 |
| 20260504190303 | 67 | 98 | 8.0 | 13.0 | 0.00 | 0.00 | 0.00 | 30 | 1009.9 |
| 20260504190003 | 66 | 88 | 8.0 | 12.0 | 0.00 | 0.00 | 0.00 | 30 | 1010.0 |
| 20260504185502 | 66 | 79 | 7.0 | 14.0 | 0.00 | 0.00 | 0.00 | 30 | 1010.1 |
| 20260504185103 | 66 | 78 | 4.0 | 18.0 | 0.00 | 0.00 | 0.00 | 31 | 1010.0 |
| 20260504184202 | 66 | 47 | 2.0 | 13.0 | 0.00 | 0.00 | 0.00 | 30 | 1010.1 |
| 20260504184002 | 66 | 302 | 3.0 | 5.0 | 0.00 | 0.00 | 0.00 | 32 | 1010.0 |
| 20260504183802 | 65 | 297 | 3.0 | 5.0 | 0.00 | 0.00 | 0.00 | 31 | 1010.1 |
| 20260504183703 | 65 | 292 | 4.0 | 8.0 | 0.00 | 0.00 | 0.00 | 31 | 1010.2 |
| 20260504183602 | 65 | 292 | 4.0 | 8.0 | 0.00 | 0.00 | 0.00 | 31 | 1010.1 |
| 20260504183402 | 65 | 278 | 5.0 | 10.0 | 0.00 | 0.00 | 0.00 | 31 | 1010.1 |
| 20260504183203 | 65 | 274 | 6.0 | 10.0 | 0.00 | 0.00 | 0.00 | 32 | 1010.2 |
| 20260504182602 | 64 | 255 | 8.0 | 14.0 | 0.00 | 0.00 | 0.00 | 33 | 1010.3 |
| 20260504182402 | 64 | 253 | 9.0 | 14.0 | 0.00 | 0.00 | 0.00 | 32 | 1010.4 |
| 20260504182103 | 64 | 243 | 8.0 | 14.0 | 0.00 | 0.00 | 0.00 | 31 | 1010.4 |
| 20260504181202 | 65 | 170 | 9.0 | 14.0 | 0.00 | 0.00 | 0.00 | 33 | 1010.6 |
| 20260504181102 | 64 | 159 | 9.0 | 14.0 | 0.00 | 0.00 | 0.00 | 33 | 1010.6 |
| 20260504181002 | 64 | 150 | 9.0 | 14.0 | 0.00 | 0.00 | 0.00 | 33 | 1010.6 |
| 20260504180802 | 64 | 141 | 8.0 | 14.0 | 0.00 | 0.00 | 0.00 | 33 | 1010.7 |
| 20260504180702 | 64 | 134 | 8.0 | 14.0 | 0.00 | 0.00 | 0.00 | 33 | 1010.7 |
| 20260504180503 | 64 | 125 | 7.0 | 19.0 | 0.00 | 0.00 | 0.00 | 34 | 1010.7 |
| 20260504175803 | 64 | 121 | 5.0 | 19.0 | 0.00 | 0.00 | 0.00 | 34 | 1010.8 |
| 20260504174702 | 62 | 269 | 7.0 | 14.0 | 0.00 | 0.00 | 0.00 | 37 | 1011.0 |
| 20260504174603 | 62 | 268 | 7.0 | 14.0 | 0.00 | 0.00 | 0.00 | 37 | 1011.0 |
| 20260504174002 | 62 | 260 | 6.0 | 15.0 | 0.00 | 0.00 | 0.00 | 37 | 1011.0 |
| 20260504173702 | 63 | 248 | 6.0 | 15.0 | 0.00 | 0.00 | 0.00 | 35 | 1011.1 |
| 20260504173602 | 63 | 243 | 6.0 | 15.0 | 0.00 | 0.00 | 0.00 | 35 | 1011.1 |
| 20260504172602 | 63 | 257 | 3.0 | 14.0 | 0.00 | 0.00 | 0.00 | 35 | 1011.3 |
| 20260504172002 | 64 | 150 | 4.0 | 9.0 | 0.00 | 0.00 | 0.00 | 36 | 1011.4 |
| 20260504171003 | 62 | 149 | 6.0 | 12.0 | 0.00 | 0.00 | 0.00 | 38 | 1011.4 |
| 20260504170603 | 62 | 155 | 6.0 | 11.0 | 0.00 | 0.00 | 0.00 | 37 | 1011.3 |
| 20260504170303 | 62 | 172 | 6.0 | 11.0 | 0.00 | 0.00 | 0.00 | 38 | 1011.3 |
| 20260504160402 | 60 | 135 | 2.0 | 6.0 | 0.00 | 0.00 | 0.00 | 33 | 1012.0 |
| 20260504150702 | 56 | 90 | 1.0 | 4.0 | 0.00 | 0.00 | 0.00 | 38 | 1011.9 |
| 20260504141002 | 54 | 0 | 0.0 | 0.0 | 0.00 | 0.00 | 0.00 | 42 | 1012.2 |
| 20260504140902 | 54 | 0 | 0.0 | 0.0 | 0.00 | 0.00 | 0.00 | 42 | 1012.2 |
| 20260504130802 | 50 | 0 | 0.0 | 2.0 | 0.00 | 0.00 | 0.00 | 44 | 1011.9 |
| 20260504130702 | 50 | 0 | 0.0 | 0.0 | 0.00 | 0.00 | 0.00 | 45 | 1012.0 |
| 20260504130603 | 50 | 0 | 0.0 | 0.0 | 0.00 | 0.00 | 0.00 | 45 | 1012.0 |
| 20260504130502 | 50 | 0 | 0.0 | 0.0 | 0.00 | 0.00 | 0.00 | 45 | 1012.0 |
| 20260504130402 | 50 | 0 | 0.0 | 0.0 | 0.00 | 0.00 | 0.00 | 45 | 1012.0 |
| 20260504130303 | 50 | 0 | 0.0 | 0.0 | 0.00 | 0.00 | 0.00 | 46 | 1012.0 |
| 20260504130202 | 50 | 0 | 0.0 | 0.0 | 0.00 | 0.00 | 0.00 | 44 | 1011.9 |
| 20260504120302 | 51 | 302 | 0.0 | 4.0 | 0.00 | 0.00 | 0.00 | 39 | 1011.0 |
| 20260504120202 | 51 | 0 | 0.0 | 4.0 | 0.00 | 0.00 | 0.00 | 39 | 1011.0 |
| 20260504110703 | 53 | 110 | 2.0 | 6.0 | 0.00 | 0.00 | 0.00 | 36 | 1011.3 |
| 20260504110602 | 53 | 109 | 2.0 | 6.0 | 0.00 | 0.00 | 0.00 | 36 | 1011.2 |
| 20260504110502 | 53 | 108 | 2.0 | 6.0 | 0.00 | 0.00 | 0.00 | 36 | 1011.1 |
| 20260504110403 | 53 | 108 | 1.0 | 6.0 | 0.00 | 0.00 | 0.00 | 35 | 1011.1 |
| 20260504110302 | 53 | 108 | 1.0 | 6.0 | 0.00 | 0.00 | 0.00 | 35 | 1011.2 |
| 20260504110203 | 53 | 108 | 1.0 | 6.0 | 0.00 | 0.00 | 0.00 | 35 | 1011.1 |
| 20260504100603 | 57 | 230 | 6.0 | 7.0 | 0.00 | 0.00 | 0.00 | 29 | 1010.7 |
| 20260504100503 | 57 | 232 | 6.0 | 7.0 | 0.00 | 0.00 | 0.00 | 29 | 1010.7 |
| 20260504100402 | 57 | 233 | 6.0 | 7.0 | 0.00 | 0.00 | 0.00 | 29 | 1010.7 |
| 20260504100303 | 57 | 235 | 6.0 | 7.0 | 0.00 | 0.00 | 0.00 | 29 | 1010.7 |
| 20260504100202 | 57 | 237 | 6.0 | 7.0 | 0.00 | 0.00 | 0.00 | 28 | 1010.6 |
| 20260504082003 | 54 | 256 | 3.0 | 5.0 | 0.00 | 0.00 | 0.00 | 36 | 1010.3 |
| 20260504081902 | 54 | 255 | 3.0 | 5.0 | 0.00 | 0.00 | 0.00 | 35 | 1010.4 |
| 20260504081702 | 53 | 248 | 3.0 | 5.0 | 0.00 | 0.00 | 0.00 | 32 | 1010.3 |
| 20260504081602 | 53 | 247 | 3.0 | 5.0 | 0.00 | 0.00 | 0.00 | 33 | 1010.3 |
| 20260504081503 | 52 | 246 | 3.0 | 5.0 | 0.00 | 0.00 | 0.00 | 34 | 1010.4 |
| 20260504081402 | 52 | 245 | 3.0 | 5.0 | 0.00 | 0.00 | 0.00 | 34 | 1010.5 |
| 20260504081302 | 52 | 242 | 3.0 | 5.0 | 0.00 | 0.00 | 0.00 | 36 | 1010.5 |
| 20260504081203 | 52 | 241 | 2.0 | 5.0 | 0.00 | 0.00 | 0.00 | 37 | 1010.4 |
| 20260504081002 | 51 | 246 | 2.0 | 6.0 | 0.00 | 0.00 | 0.00 | 37 | 1010.4 |
| 20260504080903 | 51 | 248 | 2.0 | 6.0 | 0.00 | 0.00 | 0.00 | 37 | 1010.5 |
| 20260504080802 | 51 | 252 | 2.0 | 6.0 | 0.00 | 0.00 | 0.00 | 38 | 1010.5 |
| 20260504080702 | 51 | 256 | 2.0 | 6.0 | 0.00 | 0.00 | 0.00 | 39 | 1010.5 |
| 20260504080603 | 51 | 258 | 1.0 | 6.0 | 0.00 | 0.00 | 0.00 | 38 | 1010.5 |
| 20260504080502 | 51 | 261 | 1.0 | 6.0 | 0.00 | 0.00 | 0.00 | 38 | 1010.5 |
| 20260504080403 | 51 | 263 | 1.0 | 6.0 | 0.00 | 0.00 | 0.00 | 38 | 1010.4 |
| 20260504080303 | 51 | 266 | 1.0 | 6.0 | 0.00 | 0.00 | 0.00 | 37 | 1010.5 |
| 20260504080202 | 51 | 270 | 1.0 | 6.0 | 0.00 | 0.00 | 0.00 | 38 | 1010.5 |